TimeMDT,TemperatureF,Dew PointF,Humidity,Sea Level PressureIn,VisibilityMPH,Wind Direction,Wind SpeedMPH,Gust SpeedMPH,PrecipitationIn,Events,Conditions,WindDirDegrees,DateUTC
12:53 AM,53.1,21.9,30,30.08,10.0,Calm,Calm,-,N/A,,Clear,0,2012-09-23 06:53:00
1:53 AM,51.1,19.0,28,30.08,10.0,Calm,Calm,-,N/A,,Clear,0,2012-09-23 07:53:00
2:53 AM,48.9,19.0,31,30.08,10.0,Calm,Calm,-,N/A,,Clear,0,2012-09-23 08:53:00
3:53 AM,48.9,19.9,32,30.08,10.0,East,3.5,-,N/A,,Clear,100,2012-09-23 09:53:00
4:53 AM,45.0,19.0,36,30.10,10.0,East,4.6,-,N/A,,Clear,100,2012-09-23 10:53:00
5:53 AM,44.1,19.0,37,30.11,10.0,Calm,Calm,-,N/A,,Clear,0,2012-09-23 11:53:00
6:53 AM,43.0,19.0,38,30.15,10.0,Calm,Calm,-,N/A,,Clear,0,2012-09-23 12:53:00
7:53 AM,44.1,19.9,38,30.18,10.0,East,3.5,-,N/A,,Clear,100,2012-09-23 13:53:00
8:53 AM,51.1,25.0,36,30.19,10.0,Calm,Calm,-,N/A,,Clear,0,2012-09-23 14:53:00
9:53 AM,61.0,28.0,29,30.17,10.0,Calm,Calm,-,N/A,,Clear,0,2012-09-23 15:53:00
10:53 AM,66.0,28.0,24,30.15,10.0,Variable,3.5,-,N/A,,Clear,0,2012-09-23 16:53:00
11:53 AM,70.0,25.0,18,30.12,10.0,Variable,3.5,-,N/A,,Clear,0,2012-09-23 17:53:00
12:53 PM,73.9,27.0,18,30.09,10.0,Calm,Calm,-,N/A,,Clear,0,2012-09-23 18:53:00
1:53 PM,78.1,28.0,16,30.06,10.0,East,4.6,-,N/A,,Clear,100,2012-09-23 19:53:00
2:53 PM,82.9,30.0,15,30.02,10.0,West,17.3,25.3,N/A,,Clear,280,2012-09-23 20:53:00
3:53 PM,81.0,30.0,16,30.01,10.0,West,21.9,29.9,N/A,,Clear,260,2012-09-23 21:53:00
4:53 PM,80.1,30.9,17,30.02,10.0,West,6.9,-,N/A,,Clear,260,2012-09-23 22:53:00
5:53 PM,78.1,30.0,17,30.04,10.0,WSW,16.1,-,N/A,,Clear,250,2012-09-23 23:53:00
6:53 PM,75.9,30.0,19,30.04,10.0,WSW,8.1,-,N/A,,Partly Cloudy,250,2012-09-24 00:53:00
7:53 PM,73.0,30.9,21,30.06,10.0,SSW,8.1,-,N/A,,Clear,210,2012-09-24 01:53:00
8:53 PM,73.9,33.1,22,30.04,10.0,WSW,6.9,-,N/A,,Partly Cloudy,250,2012-09-24 02:53:00
9:53 PM,68.0,35.1,30,30.03,10.0,East,5.8,-,N/A,,Partly Cloudy,90,2012-09-24 03:53:00
10:53 PM,66.9,34.0,30,30.00,10.0,Calm,Calm,-,N/A,,Clear,0,2012-09-24 04:53:00
11:53 PM,63.0,35.1,35,30.00,10.0,Calm,Calm,-,N/A,,Clear,0,2012-09-24 05:53:00